Location: Milton Keynes
(52.0316°N, 0.7531°W)
Time: 06:43:24
(UTC+00:00)

Genesis I - Pass Details

Date: 26 January 2019
Orbit: 476 x 550 km, 64.5° (Epoch: 21 February)

Event Time Altitude Azimuth Distance (km) Brightness Sun altitude
Exits shadow 04:19:18 21° 70° (ENE) 1,260 5.8 -32.5°
Drops below altitude 10° 04:20:58 10° 56° (NE) 1,832 6.7 -32.2°
Sets 04:23:19 0° 48° (NE) 2,733 7.7 -31.8°
